Location: Risskov
(56.1972°N, 10.2480°E)
Time: 22:33:50
(UTC+00:00)

SPOT 5 - Pass Details

Date: 05 July 2020
Orbit: 622 x 815 km, 98.3° (Epoch: 14 August)

Event Time Altitude Azimuth Distance (km) Brightness Sun altitude
Exits shadow 21:13:55 - 180° (S) 2,844 5.4 -6.5°
Reaches altitude 10° 21:15:23 10° 184° (S) 2,274 5.0 -6.6°
Maximum altitude 21:20:14 50° 260° (W) 920 3.6 -6.9°
Drops below altitude 10° 21:24:52 10° 336° (NNW) 2,168 7.2 -7.2°
Sets 21:27:08 0° 342° (NNW) 3,060 8.4 -7.4°
